Time,TemperatureF,DewpointF,PressureIn,WindDirection,WindDirectionDegrees,WindSpeedMPH,WindSpeedGustMPH,Humidity,HourlyPrecipIn,Conditions,Clouds,dailyrainin,SoftwareType,DateUTC
2013-04-26 00:02:00,44.0,34.0,-100.00,East,90,13.0,20.0,64,0.00,,,0.00,,2013-04-26 05:02:00,
2013-04-26 00:12:00,44.0,32.0,-100.00,East,85,12.0,18.0,64,0.00,,,0.00,,2013-04-26 05:12:00,
2013-04-26 00:22:00,43.0,32.0,-100.00,ENE,75,12.0,16.0,67,0.00,,,0.00,,2013-04-26 05:22:00,
2013-04-26 00:32:00,42.0,34.0,-100.00,ENE,70,10.0,14.0,69,0.00,,,0.00,,2013-04-26 05:32:00,
2013-04-26 00:42:00,42.0,34.0,-100.00,ENE,75,9.0,13.0,71,0.00,,,0.00,,2013-04-26 05:42:00,
2013-04-26 00:52:00,42.0,34.0,-100.00,ENE,70,10.0,12.0,71,0.00,,,0.00,,2013-04-26 05:52:00,
2013-04-26 01:02:00,41.0,34.0,-100.00,ENE,70,7.0,13.0,72,0.00,,,0.00,,2013-04-26 06:02:00,
2013-04-26 01:11:00,42.0,34.0,-100.00,ENE,65,9.0,12.0,72,0.00,,,0.00,,2013-04-26 06:11:00,
2013-04-26 01:21:00,41.0,34.0,-100.00,ENE,75,8.0,11.0,75,0.00,,,0.00,,2013-04-26 06:21:00,
2013-04-26 01:32:00,40.0,34.0,-100.00,ENE,70,9.0,11.0,76,0.00,,,0.00,,2013-04-26 06:32:00,
2013-04-26 01:41:00,40.0,34.0,-100.00,ENE,75,9.0,12.0,77,0.00,,,0.00,,2013-04-26 06:41:00,
2013-04-26 01:51:00,40.0,34.0,-100.00,ENE,65,7.0,11.0,77,0.00,,,0.00,,2013-04-26 06:51:00,
2013-04-26 02:01:00,41.0,34.0,-100.00,NNE,25,7.0,11.0,77,0.00,,,0.00,,2013-04-26 07:01:00,
2013-04-26 02:11:00,41.0,34.0,-100.00,NE,50,9.0,13.0,78,0.00,,,0.00,,2013-04-26 07:11:00,
2013-04-26 02:22:00,42.0,36.0,-100.00,ENE,60,6.0,13.0,78,0.00,,,0.00,,2013-04-26 07:22:00,
2013-04-26 02:31:00,41.0,36.0,-100.00,ENE,70,7.0,10.0,77,0.00,,,0.00,,2013-04-26 07:31:00,
2013-04-26 02:42:00,41.0,36.0,-100.00,East,85,9.0,12.0,78,0.00,,,0.00,,2013-04-26 07:42:00,
2013-04-26 02:52:00,42.0,36.0,-100.00,East,90,9.0,15.0,76,0.00,,,0.00,,2013-04-26 07:52:00,
2013-04-26 03:02:00,41.0,36.0,-100.00,ESE,105,9.0,12.0,76,0.00,,,0.00,,2013-04-26 08:02:00,
2013-04-26 03:11:00,41.0,36.0,-100.00,ESE,105,9.0,13.0,77,0.00,,,0.00,,2013-04-26 08:11:00,
2013-04-26 03:21:00,41.0,36.0,-100.00,East,100,9.0,14.0,78,0.00,,,0.00,,2013-04-26 08:21:00,
2013-04-26 03:31:00,41.0,36.0,-100.00,ESE,115,11.0,14.0,79,0.00,,,0.00,,2013-04-26 08:31:00,
2013-04-26 03:42:00,41.0,36.0,-100.00,ESE,120,11.0,16.0,80,0.00,,,0.00,,2013-04-26 08:42:00,
2013-04-26 03:51:00,41.0,36.0,-100.00,SE,125,11.0,16.0,80,0.00,,,0.00,,2013-04-26 08:51:00,
2013-04-26 04:01:00,41.0,36.0,-100.00,SE,125,10.0,14.0,81,0.00,,,0.00,,2013-04-26 09:01:00,
2013-04-26 04:11:00,40.0,36.0,-100.00,SE,130,9.0,12.0,83,0.00,,,0.00,,2013-04-26 09:11:00,
2013-04-26 04:21:00,40.0,36.0,-100.00,ESE,120,9.0,12.0,84,0.00,,,0.00,,2013-04-26 09:21:00,
2013-04-26 04:33:00,40.0,36.0,-100.00,SE,125,10.0,14.0,85,0.00,,,0.00,,2013-04-26 09:33:00,
2013-04-26 04:42:00,40.0,36.0,-100.00,SE,125,9.0,13.0,87,0.00,,,0.00,,2013-04-26 09:42:00,
2013-04-26 04:53:00,39.0,36.0,-100.00,SE,130,9.0,12.0,88,0.00,,,0.00,,2013-04-26 09:53:00,
2013-04-26 05:03:00,39.0,36.0,-100.00,SE,130,9.0,11.0,89,0.00,,,0.00,,2013-04-26 10:03:00,
2013-04-26 05:12:00,38.0,36.0,-100.00,SE,140,8.0,11.0,91,0.00,,,0.00,,2013-04-26 10:12:00,
2013-04-26 05:23:00,38.0,36.0,-100.00,SE,140,7.0,10.0,93,0.00,,,0.00,,2013-04-26 10:23:00,
2013-04-26 05:33:00,38.0,36.0,-100.00,SE,145,9.0,10.0,94,0.00,,,0.00,,2013-04-26 10:33:00,
2013-04-26 05:42:00,38.0,37.0,-100.00,SE,135,7.0,9.0,94,0.00,,,0.00,,2013-04-26 10:42:00,
2013-04-26 05:52:00,38.0,37.0,-100.00,SE,140,9.0,10.0,95,0.00,,,0.00,,2013-04-26 10:52:00,
2013-04-26 06:02:00,38.0,37.0,-100.00,SE,135,7.0,9.0,96,0.00,,,0.00,,2013-04-26 11:02:00,
2013-04-26 06:11:00,38.0,37.0,-100.00,SE,130,6.0,7.0,96,0.00,,,0.00,,2013-04-26 11:11:00,
2013-04-26 06:22:00,38.0,37.0,-100.00,SE,140,6.0,8.0,96,0.00,,,0.00,,2013-04-26 11:22:00,
2013-04-26 06:32:00,38.0,37.0,-100.00,SE,145,7.0,7.0,97,0.00,,,0.00,,2013-04-26 11:32:00,
2013-04-26 06:41:00,37.0,37.0,-100.00,SE,140,6.0,7.0,98,0.00,,,0.00,,2013-04-26 11:41:00,
2013-04-26 06:52:00,37.0,37.0,-100.00,SE,145,7.0,9.0,98,0.00,,,0.00,,2013-04-26 11:52:00,
2013-04-26 07:01:00,37.0,37.0,-100.00,SE,145,7.0,11.0,99,0.00,,,0.00,,2013-04-26 12:01:00,
2013-04-26 07:11:00,38.0,37.0,-100.00,SSE,150,6.0,8.0,99,0.00,,,0.00,,2013-04-26 12:11:00,
2013-04-26 07:21:00,38.0,37.0,-100.00,SE,145,5.0,6.0,99,0.00,,,0.00,,2013-04-26 12:21:00,
2013-04-26 07:41:00,39.0,39.0,-100.00,SSE,155,6.0,6.0,98,0.00,,,0.00,,2013-04-26 12:41:00,
2013-04-26 08:01:00,42.0,41.0,-100.00,SSW,195,5.0,7.0,97,0.00,,,0.00,,2013-04-26 13:01:00,
2013-04-26 08:11:00,44.0,43.0,-100.00,SSW,205,6.0,7.0,95,0.00,,,0.00,,2013-04-26 13:11:00,
2013-04-26 08:21:00,46.0,43.0,-100.00,SSW,210,7.0,8.0,92,0.00,,,0.00,,2013-04-26 13:21:00,
2013-04-26 08:31:00,47.0,43.0,-100.00,SSW,210,8.0,9.0,88,0.00,,,0.00,,2013-04-26 13:31:00,
2013-04-26 08:41:00,48.0,43.0,-100.00,WSW,240,6.0,10.0,84,0.00,,,0.00,,2013-04-26 13:41:00,
2013-04-26 08:52:00,49.0,43.0,-100.00,WSW,245,9.0,12.0,79,0.00,,,0.00,,2013-04-26 13:52:00,
2013-04-26 09:01:00,50.0,43.0,-100.00,WSW,245,9.0,11.0,75,0.00,,,0.00,,2013-04-26 14:01:00,
2013-04-26 09:11:00,50.0,41.0,-100.00,West,265,9.0,12.0,73,0.00,,,0.00,,2013-04-26 14:11:00,
2013-04-26 09:21:00,51.0,41.0,-100.00,WNW,295,11.0,14.0,70,0.00,,,0.00,,2013-04-26 14:21:00,
2013-04-26 09:32:00,50.0,41.0,-100.00,WNW,290,10.0,14.0,70,0.00,,,0.00,,2013-04-26 14:32:00,
2013-04-26 09:41:00,51.0,41.0,-100.00,WNW,285,12.0,16.0,69,0.00,,,0.00,,2013-04-26 14:41:00,
2013-04-26 09:51:00,51.0,41.0,-100.00,NW,315,10.0,14.0,68,0.00,,,0.00,,2013-04-26 14:51:00,
2013-04-26 10:01:00,51.0,41.0,-100.00,NW,315,10.0,14.0,69,0.00,,,0.00,,2013-04-26 15:01:00,
2013-04-26 10:12:00,51.0,41.0,-100.00,NW,320,9.0,13.0,69,0.00,,,0.00,,2013-04-26 15:12:00,
2013-04-26 10:21:00,52.0,43.0,-100.00,NW,315,9.0,11.0,68,0.00,,,0.00,,2013-04-26 15:21:00,
2013-04-26 10:33:00,53.0,43.0,-100.00,NW,320,7.0,11.0,68,0.00,,,0.00,,2013-04-26 15:33:00,
2013-04-26 10:42:00,53.0,43.0,-100.00,NW,325,11.0,14.0,67,0.00,,,0.00,,2013-04-26 15:42:00,
2013-04-26 10:53:00,54.0,43.0,-100.00,NNW,335,9.0,12.0,66,0.00,,,0.00,,2013-04-26 15:53:00,
2013-04-26 11:03:00,54.0,43.0,-100.00,NW,325,8.0,12.0,66,0.00,,,0.00,,2013-04-26 16:03:00,
2013-04-26 11:12:00,55.0,45.0,-100.00,NW,320,9.0,12.0,66,0.00,,,0.00,,2013-04-26 16:12:00,
2013-04-26 11:23:00,56.0,45.0,-100.00,NNW,330,7.0,12.0,64,0.00,,,0.00,,2013-04-26 16:23:00,
2013-04-26 11:33:00,57.0,45.0,-100.00,North,350,6.0,11.0,65,0.00,,,0.00,,2013-04-26 16:33:00,
2013-04-26 11:42:00,57.0,46.0,-100.00,North,0,7.0,12.0,64,0.00,,,0.00,,2013-04-26 16:42:00,
2013-04-26 11:52:00,57.0,45.0,-100.00,NNW,345,12.0,15.0,62,0.00,,,0.00,,2013-04-26 16:52:00,
2013-04-26 12:02:00,58.0,45.0,-100.00,North,350,8.0,14.0,61,0.00,,,0.00,,2013-04-26 17:02:00,
2013-04-26 12:12:00,58.0,45.0,-100.00,NNW,340,9.0,12.0,60,0.00,,,0.00,,2013-04-26 17:12:00,
2013-04-26 12:21:00,59.0,46.0,-100.00,North,0,9.0,11.0,60,0.00,,,0.00,,2013-04-26 17:21:00,
2013-04-26 12:31:00,59.0,45.0,-100.00,North,0,9.0,12.0,58,0.00,,,0.00,,2013-04-26 17:31:00,
2013-04-26 12:41:00,61.0,46.0,-100.00,North,5,6.0,10.0,57,0.00,,,0.00,,2013-04-26 17:41:00,
2013-04-26 12:51:00,62.0,46.0,-100.00,NW,325,5.0,9.0,55,0.00,,,0.00,,2013-04-26 17:51:00,
2013-04-26 13:02:00,62.0,45.0,-100.00,NE,35,5.0,9.0,53,0.00,,,0.00,,2013-04-26 18:02:00,
2013-04-26 13:11:00,62.0,45.0,-100.00,North,0,7.0,10.0,52,0.00,,,0.00,,2013-04-26 18:11:00,
2013-04-26 13:22:00,64.0,45.0,-100.00,NW,325,6.0,9.0,48,0.00,,,0.00,,2013-04-26 18:22:00,
2013-04-26 13:33:00,64.0,45.0,-100.00,NW,325,5.0,9.0,48,0.00,,,0.00,,2013-04-26 18:33:00,
2013-04-26 13:41:00,64.0,45.0,-100.00,NW,320,7.0,9.0,48,0.00,,,0.00,,2013-04-26 18:41:00,
2013-04-26 13:52:00,65.0,45.0,-100.00,NNW,340,7.0,10.0,48,0.00,,,0.00,,2013-04-26 18:52:00,
2013-04-26 14:01:00,65.0,45.0,-100.00,NW,315,7.0,11.0,47,0.00,,,0.00,,2013-04-26 19:01:00,
2013-04-26 14:11:00,65.0,46.0,-100.00,North,0,4.0,11.0,48,0.00,,,0.00,,2013-04-26 19:11:00,
2013-04-26 14:22:00,65.0,46.0,-100.00,WNW,295,4.0,10.0,48,0.00,,,0.00,,2013-04-26 19:22:00,
2013-04-26 14:31:00,64.0,46.0,-100.00,NW,325,11.0,14.0,51,0.00,,,0.00,,2013-04-26 19:31:00,
2013-04-26 14:41:00,65.0,46.0,-100.00,WNW,295,9.0,14.0,49,0.00,,,0.00,,2013-04-26 19:41:00,
2013-04-26 14:52:00,64.0,45.0,-100.00,NW,320,10.0,16.0,50,0.00,,,0.00,,2013-04-26 19:52:00,
2013-04-26 15:02:00,64.0,46.0,-100.00,NW,325,13.0,17.0,51,0.00,,,0.00,,2013-04-26 20:02:00,
2013-04-26 15:11:00,63.0,45.0,-100.00,NNW,340,16.0,20.0,48,0.00,,,0.00,,2013-04-26 20:11:00,
2013-04-26 15:21:00,64.0,43.0,-100.00,NNW,335,13.0,17.0,46,0.00,,,0.00,,2013-04-26 20:21:00,
2013-04-26 15:32:00,64.0,43.0,-100.00,NNW,345,9.0,17.0,47,0.00,,,0.00,,2013-04-26 20:32:00,
2013-04-26 15:42:00,63.0,43.0,-100.00,North,0,9.0,14.0,46,0.00,,,0.00,,2013-04-26 20:42:00,
2013-04-26 15:51:00,64.0,43.0,-100.00,North,355,8.0,12.0,44,0.00,,,0.00,,2013-04-26 20:51:00,
2013-04-26 16:01:00,64.0,41.0,-100.00,NNW,335,10.0,14.0,43,0.00,,,0.00,,2013-04-26 21:01:00,
2013-04-26 16:11:00,64.0,41.0,-100.00,North,0,11.0,13.0,42,0.00,,,0.00,,2013-04-26 21:11:00,
2013-04-26 16:21:00,64.0,41.0,-100.00,NNW,345,9.0,12.0,42,0.00,,,0.00,,2013-04-26 21:21:00,
2013-04-26 16:32:00,64.0,41.0,-100.00,NNW,330,12.0,14.0,41,0.00,,,0.00,,2013-04-26 21:32:00,
2013-04-26 16:42:00,64.0,39.0,-100.00,NW,315,9.0,12.0,40,0.00,,,0.00,,2013-04-26 21:42:00,
2013-04-26 16:52:00,65.0,41.0,-100.00,NNW,345,7.0,13.0,40,0.00,,,0.00,,2013-04-26 21:52:00,
2013-04-26 17:02:00,65.0,39.0,-100.00,NNW,345,7.0,12.0,39,0.00,,,0.00,,2013-04-26 22:02:00,
2013-04-26 17:12:00,65.0,39.0,-100.00,NW,320,7.0,11.0,39,0.00,,,0.00,,2013-04-26 22:12:00,
2013-04-26 17:23:00,65.0,37.0,-100.00,NNW,335,10.0,14.0,36,0.00,,,0.00,,2013-04-26 22:23:00,
2013-04-26 17:33:00,65.0,37.0,-100.00,NW,320,11.0,14.0,35,0.00,,,0.00,,2013-04-26 22:33:00,
2013-04-26 17:42:00,65.0,37.0,-100.00,NNW,345,10.0,16.0,35,0.00,,,0.00,,2013-04-26 22:42:00,
2013-04-26 17:52:00,65.0,37.0,-100.00,North,0,10.0,13.0,35,0.00,,,0.00,,2013-04-26 22:52:00,
2013-04-26 18:02:00,65.0,37.0,-100.00,North,0,9.0,17.0,35,0.00,,,0.00,,2013-04-26 23:02:00,
2013-04-26 18:11:00,65.0,37.0,-100.00,North,0,7.0,12.0,35,0.00,,,0.00,,2013-04-26 23:11:00,
2013-04-26 18:21:00,65.0,37.0,-100.00,NW,320,7.0,11.0,35,0.00,,,0.00,,2013-04-26 23:21:00,
2013-04-26 18:32:00,65.0,37.0,-100.00,NNW,345,9.0,12.0,35,0.00,,,0.00,,2013-04-26 23:32:00,
2013-04-26 18:42:00,65.0,37.0,-100.00,NNW,340,9.0,12.0,35,0.00,,,0.00,,2013-04-26 23:42:00,
2013-04-26 18:52:00,65.0,37.0,-100.00,NNW,340,7.0,10.0,35,0.00,,,0.00,,2013-04-26 23:52:00,
2013-04-26 19:01:00,64.0,37.0,-100.00,North,350,6.0,10.0,36,0.00,,,0.00,,2013-04-27 00:01:00,
2013-04-26 19:11:00,64.0,37.0,-100.00,NNW,345,7.0,10.0,36,0.00,,,0.00,,2013-04-27 00:11:00,
2013-04-26 19:21:00,63.0,37.0,-100.00,NNW,330,6.0,9.0,37,0.00,,,0.00,,2013-04-27 00:21:00,
2013-04-26 19:32:00,63.0,37.0,-100.00,NNW,330,4.0,9.0,38,0.00,,,0.00,,2013-04-27 00:32:00,
2013-04-26 19:41:00,63.0,37.0,-100.00,NNW,340,6.0,7.0,39,0.00,,,0.00,,2013-04-27 00:41:00,
2013-04-26 19:51:00,62.0,37.0,-100.00,NNW,345,6.0,7.0,40,0.00,,,0.00,,2013-04-27 00:51:00,
2013-04-26 20:01:00,61.0,37.0,-100.00,NNW,330,5.0,7.0,41,0.00,,,0.00,,2013-04-27 01:01:00,
2013-04-26 20:11:00,59.0,37.0,-100.00,NNW,335,6.0,7.0,44,0.00,,,0.00,,2013-04-27 01:11:00,
2013-04-26 20:21:00,58.0,37.0,-100.00,NNW,335,6.0,6.0,46,0.00,,,0.00,,2013-04-27 01:21:00,
2013-04-26 20:32:00,56.0,37.0,-100.00,NNW,345,4.0,6.0,49,0.00,,,0.00,,2013-04-27 01:32:00,
2013-04-26 20:42:00,56.0,37.0,-100.00,NNW,345,3.0,4.0,51,0.00,,,0.00,,2013-04-27 01:42:00,
2013-04-26 20:52:00,55.0,37.0,-100.00,NNW,340,2.0,4.0,51,0.00,,,0.00,,2013-04-27 01:52:00,
2013-04-26 21:01:00,55.0,37.0,-100.00,North,350,2.0,4.0,51,0.00,,,0.00,,2013-04-27 02:01:00,
2013-04-26 21:11:00,55.0,37.0,-100.00,NNW,345,2.0,4.0,52,0.00,,,0.00,,2013-04-27 02:11:00,
2013-04-26 21:22:00,54.0,37.0,-100.00,North,350,0.0,1.0,53,0.00,,,0.00,,2013-04-27 02:22:00,
2013-04-26 21:32:00,53.0,37.0,-100.00,East,100,0.0,2.0,57,0.00,,,0.00,,2013-04-27 02:32:00,
2013-04-26 21:42:00,53.0,39.0,-100.00,North,10,1.0,1.0,58,0.00,,,0.00,,2013-04-27 02:42:00,
2013-04-26 21:52:00,53.0,39.0,-100.00,NW,320,1.0,2.0,59,0.00,,,0.00,,2013-04-27 02:52:00,
2013-04-26 22:02:00,52.0,39.0,-100.00,NW,315,1.0,2.0,60,0.00,,,0.00,,2013-04-27 03:02:00,
2013-04-26 22:11:00,52.0,39.0,-100.00,North,0,0.0,2.0,60,0.00,,,0.00,,2013-04-27 03:11:00,
2013-04-26 22:22:00,50.0,39.0,-100.00,South,190,6.0,7.0,64,0.00,,,0.00,,2013-04-27 03:22:00,
2013-04-26 22:33:00,47.0,39.0,-100.00,SSW,200,5.0,7.0,75,0.00,,,0.00,,2013-04-27 03:33:00,
2013-04-26 22:42:00,48.0,41.0,-100.00,WSW,255,4.0,7.0,75,0.00,,,0.00,,2013-04-27 03:42:00,
2013-04-26 22:52:00,48.0,39.0,-100.00,WSW,245,3.0,4.0,72,0.00,,,0.00,,2013-04-27 03:52:00,
2013-04-26 23:02:00,48.0,39.0,-100.00,SW,230,3.0,4.0,71,0.00,,,0.00,,2013-04-27 04:02:00,
2013-04-26 23:12:00,48.0,39.0,-100.00,SW,220,4.0,4.0,70,0.00,,,0.00,,2013-04-27 04:12:00,
2013-04-26 23:22:00,46.0,39.0,-100.00,SW,215,1.0,4.0,75,0.00,,,0.00,,2013-04-27 04:22:00,
2013-04-26 23:33:00,46.0,39.0,-100.00,SW,220,2.0,2.0,75,0.00,,,0.00,,2013-04-27 04:33:00,
2013-04-26 23:43:00,45.0,37.0,-100.00,WSW,240,3.0,3.0,74,0.00,,,0.00,,2013-04-27 04:43:00,
2013-04-26 23:52:00,46.0,37.0,-100.00,West,260,3.0,4.0,72,0.00,,,0.00,,2013-04-27 04:52:00,